Skip Page Navigation
NASA JPL Caltech
NASA Logo - Jet Propulsion Laboratory + View the NASA Portal
+ Center for Near-Earth Object Studies
JPL Home Earth Solar System Stars & Galaxies Technology
JPL Solar System Dynamics
BODIES ORBITS EPHEMERIDES TOOLS PHYSICAL DATA DISCOVERY FAQ SITE MAP
JPL Small-Body Database Browser
Search: [ help ]  
259314 (2003 FB36)
Classification: Main-belt Asteroid          SPK-ID: 2259314
Ephemeris | Orbit Diagram | Orbital Elements | Mission Design | Physical Parameters | Discovery Circumstances | Close-Approach Data ]

[ show orbit diagram ]
Orbital Elements at Epoch 2459000.5 (2020-May-31.0) TDB
Reference: JPL 12 (heliocentric ecliptic J2000)
 Element Value Uncertainty (1-sigma)   Units 
e .1412233384184051 5.4248e-08  
a 3.125501717867293 2.4058e-08 au
q 2.684107931037614 1.701e-07 au
i 14.40691293577091 6.1205e-06 deg
node 186.179086205324 1.8907e-05 deg
peri 41.60546963261311 2.783e-05 deg
M 5.124843446814894 1.7172e-05 deg
tp 2458971.768642756336
(2020-May-02.26864276)
9.6375e-05 TDB
period 2018.264307009724
5.53
2.3303e-05
6.38e-08
d
yr
n .1783710878449705 2.0595e-09 deg/d
Q 3.566895504696971 2.7455e-08 au
  Orbit Determination Parameters
   # obs. used (total)      291  
   data-arc span      9411 days (25.77 yr)  
   first obs. used      1994-10-11  
   last obs. used      2020-07-17  
   planetary ephem.      DE431  
   SB-pert. ephem.      SB431-N16  
   condition code      0  
   norm. resid. RMS      .64887  
   source      ORB  
   producer      Otto Matic  
   solution date      2020-Nov-11 23:10:59  

Additional Information
 Earth MOID = 1.69499 au 
 Jupiter MOID = 1.45812 au 
 T_jup = 3.151 
[ show covariance matrix ]

Ephemeris | Orbit Diagram | Orbital Elements | Mission Design | Physical Parameters | Discovery Circumstances | Close-Approach Data ]

Physical Parameter Table
Parameter Symbol Value Units Sigma Reference Notes
absolute magnitude H 15.7   n/a MPO470762  

259314 (2003 FB36)          Discovered 2003-Mar-23 by Spacewatch at Kitt Peak
Reference: 20110119/Numbers.arcLast Updated: 2011-01-25

[ show close-approach data ]
Alternate Designations
 2003 FB36 = 2005 SF135 
Ephemeris | Orbit Diagram | Orbital Elements | Mission Design | Physical Parameters | Discovery Circumstances | Close-Approach Data ]
ABOUT SSD CREDITS/AWARDS PRIVACY/COPYRIGHT GLOSSARY LINKS
FirstGov 2021-Jan-22 23:35 UT
(server date/time)  
NASA Home Page
Site Manager:   Ryan S. Park
Webmaster  Alan B. Chamberlin